Location: Moscow
(38.8570°N, 84.2291°W)
Time: 15:39:13
(UTC+00:00)

IRS-1C - Pass Details

Date: 15 November 2025
Orbit: 813 x 814 km, 99.0° (Epoch: 06 December)

Event Time Altitude Azimuth Distance (km) Brightness Sun altitude
Rises 23:23:38 0° 170° (S) 3,322 7.4 -12.0°
Reaches altitude 10° 23:25:58 10° 172° (S) 2,394 6.6 -12.4°
Maximum altitude 23:31:15 72° 257° (WSW) 854 4.4 -13.4°
Drops below altitude 10° 23:36:35 10° 342° (NNW) 2,410 6.6 -14.5°
Sets 23:38:57 0° 345° (NNW) 3,345 7.4 -14.9°
